Location: Newark
(30.1000°N, 109.4667°E)
Time: 22:50:57
(UTC+00:00)

Courier 1B Rocket - Visible Passes

Search period start: 18 February 2020 00:00
Search period end: 28 February 2020 00:00
Orbit: 920 x 1202 km, 28.2° (Epoch: 17 February)

Date Brightness Start Highest point End Pass type
(mag) Time Alt. Az. Time Alt. Az. Time Alt. Az.
18 Feb 7.6 19:29:06 14° E 19:29:06 14° E 19:30:01 10° E visible
18 Feb 5.1 21:15:28 63° WSW 21:16:31 73° S 21:23:56 10° ESE visible
19 Feb 6.3 20:18:15 39° ESE 20:18:15 39° ESE 20:22:34 10° E visible
19 Feb 5.6 22:04:36 24° W 22:08:54 55° SSW 22:16:11 10° ESE visible
20 Feb 7.8 19:21:02 11° E 19:21:02 11° E 19:21:13 10° E visible
20 Feb 5.1 21:07:24 63° SSW 21:07:45 64° SSW 21:15:00 10° ESE visible
21 Feb 6.6 20:10:13 31° ESE 20:10:13 31° ESE 20:13:43 10° ESE visible
21 Feb 5.8 21:56:36 26° WSW 22:00:03 43° SSW 22:06:56 10° SE visible
22 Feb 5.4 20:59:27 52° S 20:59:27 52° S 21:05:56 10° ESE visible
22 Feb 6.6 22:46:47 10° WSW 22:52:11 24° SSW 22:57:53 10° SSE visible
23 Feb 6.9 20:02:21 23° ESE 20:02:21 23° ESE 20:04:48 10° ESE visible
23 Feb 6.1 21:48:44 25° WSW 21:51:10 32° SSW 21:57:26 10° SE visible
24 Feb 6.0 20:51:40 36° S 20:51:40 36° S 20:56:41 10° SE visible
24 Feb 6.9 22:39:20 10° WSW 22:43:16 16° SSW 22:47:20 10° S visible
25 Feb 7.3 19:54:39 15° SE 19:54:39 15° SE 19:55:46 10° ESE visible
25 Feb 6.4 21:41:02 21° SW 21:42:17 22° SSW 21:47:31 10° SSE visible
26 Feb 7.0 13:03:51 10° SSW 13:05:16 15° SSW 13:05:16 15° SSW visible
26 Feb 6.6 20:44:03 23° SSE 20:44:03 23° SSE 20:47:11 10° SE visible
27 Feb 6.6 12:04:07 10° S 12:07:50 16° SSE 12:08:22 16° SE visible
27 Feb 6.8 21:33:30 14° SSW 21:33:30 14° SSW 21:36:49 10° S visible
